Location: Emporia
(38.4040°N, 96.1810°W)
Time: 18:20:43
(UTC-06:00)

ISS - Visible Passes

Search period start: 25 November 2014 00:00
Search period end: 05 December 2014 00:00
Orbit: 407 x 417 km, 51.6° (Epoch: 25 November)

Date Brightness Start Highest point End Pass type
(mag) Time Alt. Az. Time Alt. Az. Time Alt. Az.
25 Nov -1.6 05:50:04 19° N 05:51:27 26° NNE 05:54:17 10° E visible
26 Nov -0.6 05:02:27 16° NE 05:02:27 16° NE 05:03:50 10° ENE visible
26 Nov -3.3 06:35:17 11° NW 06:38:25 69° SW 06:41:41 10° SE visible
27 Nov -3.0 05:47:37 41° NNW 05:48:31 61° NE 05:51:46 10° ESE visible
28 Nov -0.8 04:59:56 22° E 04:59:56 22° E 05:01:30 10° E visible
28 Nov -1.8 06:32:45 13° W 06:34:56 23° SW 06:37:36 10° S visible
29 Nov -2.8 05:45:03 44° SW 05:45:03 44° SW 05:48:06 10° SSE visible
30 Nov -0.5 04:57:18 16° SE 04:57:18 16° SE 04:58:05 10° SE visible
01 Dec -0.8 05:42:22 12° SSW 05:42:22 12° SSW 05:42:51 10° S visible
